Jamaica, NY

3:11 PM EST on January 20, 2017 (GMT -0500)
Kennedy International

Weather History for KJFK - November, 2013

Change the Weather History Date:

Tuesday, November 19, 2013

  Actual Average Record
Temperature  
Mean Temperature 44 °F 46 °F  
Max Temperature 52 °F 53 °F 64 °F (1994)
Min Temperature 36 °F 40 °F 23 °F (2014)
Degree Days  
Heating Degree Days 21 19  
Month to date heating degree days 302 300  
Since 1 July heating degree days 533 599  
Cooling Degree Days 0 0  
Month to date cooling degree days 0 0  
Year to date cooling degree days 1111 1005  
Moisture  
Dew Point 23 °F    
Average Humidity 43    
Maximum Humidity 52    
Minimum Humidity 33    
Precipitation  
Precipitation 0.00 in 0.12 in 1.17 in (2003)
Month to date precipitation 0.50 2.02  
Year to date precipitation 28.94 38.10  
Snow  
Snow 0.00 in 0.00 in 0.40 in (1986)
Month to date snowfall 0.2 0.0  
Since 1 July snowfall 0.2 0.0  
Snow Depth 0.00 in    
Sea Level Pressure  
Sea Level Pressure 30.07 in    
Wind  
Wind Speed 21 mph (NW)    
Max Wind Speed 31 mph    
Max Gust Speed 40 mph    
Visibility 10 miles    
Events      
T = Trace of Precipitation, MM = Missing Value Source: NWS Daily Summary

Daily Weather History Graph

Daily Weather History Graph

Search for Another Location

Airport or City:

Trip Planner

Search our weather history database for the weather conditions in past years. The results will help you decide how hot, cold, wet, or windy it might be!

Date:

Astronomy

Nov. 19, 2013 Rise Set
Actual Time 6:46 AM EST 4:34 PM EST
Civil Twilight 6:17 AM EST 5:03 PM EST
Nautical Twilight 5:43 AM EST 5:37 PM EST
Astronomical Twilight 5:11 AM EST 6:09 PM EST
Moon 6:23 PM EST (11/19) 8:23 AM EST (11/19)
Length of Visible Light 10h 46m
Length of Day
9h 47m
Waning Gibbous, 96% of the Moon is Illuminated
Nov 19
Waning Gibbous
Nov 25
Last Quarter
Dec 2
New
Dec 9
First Quarter
Dec 17
Full

Hourly Weather History & Observations

Time (EST) Temp. Windchill Dew Point Humidity Pressure Visibility Wind Dir Wind Speed Gust Speed Precip Events Conditions
12:51 AM 50.0 °F - 27.0 °F 41% 29.80 in 10.0 mi WNW 18.4 mph 31.1 mph N/A   Clear
1:51 AM 50.0 °F - 24.1 °F 36% 29.81 in 10.0 mi WNW 17.3 mph 28.8 mph N/A   Partly Cloudy
2:51 AM 48.9 °F - 27.0 °F 43% 29.84 in 10.0 mi NNW 21.9 mph 28.8 mph N/A   Mostly Cloudy
3:51 AM 46.0 °F 37.2 °F 23.0 °F 40% 29.88 in 10.0 mi NW 26.5 mph 34.5 mph N/A   Scattered Clouds
4:51 AM 45.0 °F 36.2 °F 21.9 °F 40% 29.91 in 10.0 mi NW 24.2 mph 31.1 mph N/A   Mostly Cloudy
5:51 AM 44.1 °F 35.2 °F 21.9 °F 42% 29.94 in 10.0 mi NW 23.0 mph 31.1 mph N/A   Mostly Cloudy
6:51 AM 44.1 °F 36.5 °F 21.0 °F 40% 29.99 in 10.0 mi NW 17.3 mph 31.1 mph N/A   Scattered Clouds
7:51 AM 44.1 °F 34.8 °F 21.0 °F 40% 30.01 in 10.0 mi NW 25.3 mph 40.3 mph N/A   Partly Cloudy
8:51 AM 46.0 °F 37.6 °F 21.9 °F 39% 30.01 in 10.0 mi WNW 24.2 mph 33.4 mph N/A   Partly Cloudy
9:51 AM 46.9 °F - 23.0 °F 39% 30.03 in 10.0 mi NW 25.3 mph 38.0 mph N/A   Partly Cloudy
10:51 AM 48.0 °F - 23.0 °F 37% 30.04 in 10.0 mi WNW 23.0 mph 31.1 mph N/A   Partly Cloudy
11:51 AM 50.0 °F - 23.0 °F 35% 30.04 in 10.0 mi NW 28.8 mph 35.7 mph N/A   Partly Cloudy
12:51 PM 48.9 °F - 24.1 °F 38% 30.06 in 10.0 mi NW 21.9 mph 34.5 mph N/A   Partly Cloudy
1:51 PM 48.9 °F - 24.1 °F 38% 30.08 in 10.0 mi NW 26.5 mph 32.2 mph N/A   Partly Cloudy
2:51 PM 48.0 °F - 23.0 °F 37% 30.11 in 10.0 mi WNW 27.6 mph 34.5 mph N/A   Scattered Clouds
3:51 PM 46.0 °F 37.2 °F 23.0 °F 40% 30.12 in 10.0 mi NNW 26.5 mph 33.4 mph N/A   Partly Cloudy
4:51 PM 44.1 °F 36.5 °F 23.0 °F 43% 30.15 in 10.0 mi NNW 17.3 mph 32.2 mph N/A   Scattered Clouds
5:51 PM 43.0 °F 34.2 °F 21.9 °F 43% 30.20 in 10.0 mi NNW 20.7 mph 32.2 mph N/A   Partly Cloudy
6:51 PM 41.0 °F 31.6 °F 21.0 °F 45% 30.24 in 10.0 mi NNW 20.7 mph 31.1 mph N/A   Clear
7:51 PM 39.9 °F 30.0 °F 21.0 °F 47% 30.26 in 10.0 mi NNW 21.9 mph 27.6 mph N/A   Clear
8:51 PM 39.0 °F 29.3 °F 19.9 °F 46% 30.28 in 10.0 mi NNW 19.6 mph 25.3 mph N/A   Clear
9:51 PM 37.9 °F 28.2 °F 19.9 °F 48% 30.30 in 10.0 mi North 18.4 mph 23.0 mph N/A   Clear
10:51 PM 37.0 °F 31.6 °F 21.0 °F 52% 30.33 in 10.0 mi North 6.9 mph - N/A   Partly Cloudy
11:51 PM 36.0 °F 28.5 °F 21.9 °F 57% 30.35 in 10.0 mi North 10.4 mph - N/A   Partly Cloudy